Regional Weather Roundup
Issued by NWS

Home | Current Version | Previous Version | Graphics & Text | Print | Product List | Glossary On
Versions: 1 2 3 4 5 6 7 8 9 10 11 12 13 14 15 16 17 18 19 20 21 22 23 24 25 26 27 28
000
ASUS45 KCYS 231210
RWRWY

WYOMING REGIONAL WEATHER ROUNDUP
NATIONAL WEATHER SERVICE CHEYENNE WY
600 AM MDT FRI JUN 23 2017

NOTE:  "FAIR" INDICATES FEW OR NO CLOUDS BELOW 12,000 FEET
WITH NO SIGNIFICANT WEATHER AND/OR OBSTRUCTIONS TO VISIBILITY.

WYZ001-231300-
YELLOWSTONE NATIONAL PARK

CITY           SKY/WX    TMP DP  RH WIND       PRES   REMARKS
LK YELLOWSTONE   N/A     27  25  92 CALM      30.36R
6HR MIN TEMP:  27; 6HR MAX TEMP:  42;

W YELLOWSTONE  NOT AVBL

$$
WYZ002>013-054>058-071-098>099-231300-
NORTHERN WYOMING

CITY           SKY/WX    TMP DP  RH WIND       PRES   REMARKS
JACKSON        FAIR      39  32  75 N6        30.28S WCI  35
CODY           FAIR      45  35  68 CALM      30.33R
GREYBULL       FAIR      47  31  53 SE6       30.29R
6HR MIN TEMP:  47; 6HR MAX TEMP:  59; 6HR PCP: TRACE;

WORLAND        FAIR      43  36  76 SW5       30.29R
6HR MIN TEMP:  41; 6HR MAX TEMP:  58;

SHERIDAN       FAIR      39  35  86 SW5       30.28R
6HR MIN TEMP:  39; 6HR MAX TEMP:  53;

BUFFALO        FAIR      39  34  82 W6        30.29F WCI  35
6HR MIN TEMP:  38; 6HR MAX TEMP:  52; 6HR PCP:  0.01;

GILLETTE       FAIR      41  36  82 NW6       30.26R
6HR MIN TEMP:  38; 6HR MAX TEMP:  55;

NEWCASTLE      FAIR      45  36  70 N14G21    30.25R

$$
WYZ014>020-022>026-101>103-231300-
CENTRAL WYOMING

CITY           SKY/WX    TMP DP  RH WIND       PRES   REMARKS
BIG PINEY      FAIR      40  30  67 SW8       30.32R WCI  34
6HR MIN TEMP:  38; 6HR MAX TEMP:  47;

PINEDALE       FAIR      39  32  75 CALM      30.32R
DUBOIS         FAIR      36  28  75 CALM      30.35R
LANDER         FAIR      42  32  67 CALM      30.31S
6HR MIN TEMP:  42; 6HR MAX TEMP:  55;

RIVERTON       FAIR      44  33  65 SW6       30.32R
6HR MIN TEMP:  44; 6HR MAX TEMP:  56;

CASPER         FAIR      40  34  79 N7        30.29S
6HR MIN TEMP:  40; 6HR MAX TEMP:  58;

DOUGLAS        FAIR      43  38  82 W3        30.29F
6HR MIN TEMP:  42; 6HR MAX TEMP:  60; 6HR PCP:  0.02;


$$
WYZ021-027>030-104>119-231300-
SOUTHERN WYOMING

CITY           SKY/WX    TMP DP  RH WIND       PRES   REMARKS
EVANSTON       FAIR      49  34  56 E9        30.28R
6HR MIN TEMP:  44; 6HR MAX TEMP:  58;

KEMMERER         N/A     46  27  46 E13G18    30.32R
FORT BRIDGER   FAIR      45  31  58 E10       30.32R
ROCK SPRINGS   FAIR      44  26  49 NE14      30.30S
6HR MIN TEMP:  44; 6HR MAX TEMP:  57;

DIXON          FAIR      46  33  59 E7        30.26S
RAWLINS        FAIR      43  29  57 NE10      30.30F
6HR MIN TEMP:  43; 6HR MAX TEMP:  56;

SARATOGA       FAIR      43  32  65 S5        30.29S
LARAMIE        CLOUDY    43  34  70 NE10      30.33R
6HR MIN TEMP:  43; 6HR MAX TEMP:  57; 6HR PCP: TRACE;

CHEYENNE       CLOUDY    45  36  70 N20G30    30.31R
6HR MIN TEMP:  45; 6HR MAX TEMP:  61; 6HR PCP:  0.02;

TORRINGTON     CLOUDY    51  40  65 W6        30.25F
6HR MIN TEMP:  51; 6HR MAX TEMP:  61;

PINE BLUFFS    CLOUDY    46  39  76 N16G24    30.30R

$$




USA.gov is the U.S. government's official web portal to all federal, state and local government web resources and services.